timestamp,x,y,z,uncertainty,rpm
2019-06-01/10:10:03,0.047016657,-0.49500692,0.86761603,0.18037091,12.664816
2019-06-02/05:25:05,0.0431007,-0.48353789,0.87426166,0.19453511,12.690879
2019-06-03/12:16:03,0.13378901,-0.38923916,0.91136896,0.14343189,12.667914
2019-06-04/11:55:02,0.12720123,-0.41676132,0.90007213,0.20429045,12.582208
2019-06-09/12:38:37,0.13057836,-0.87385443,0.46832438,0.63580466,15.075937
2019-06-10/12:08:37,0.096241895,-0.92153724,0.37617365,0.28850177,24.710387
2019-06-11/12:53:38,0.063132025,-0.92966225,0.36296342,0.20721594,24.637216
2019-06-12/10:38:33,0.037435929,-0.93272346,0.35864396,0.19870714,24.60602
2019-06-13/05:16:08,0.014530367,-0.92231029,0.3861769,0.28037512,24.504316
2019-06-15/10:25:03,-0.056186315,-0.92654714,0.37195899,0.21572873,24.376703
2019-06-16/04:53:32,-0.076635514,-0.91936113,0.38587836,0.32111769,24.302188
2019-06-17/22:08:33,-0.24383594,-0.82924567,0.50288732,0.18255776,24.225838
2019-06-18/12:08:32,-0.24201966,-0.83838674,0.48839959,0.1887317,24.195585
2019-06-19/07:55:04,-0.32712021,-0.73032403,0.59968256,0.16827929,24.180158
2019-06-20/08:38:31,-0.34133219,-0.72090418,0.60314965,0.16772955,24.091239
2019-06-21/21:23:34,-0.33127179,-0.73774364,0.58821196,0.36381561,24.041557
2019-06-22/07:53:25,-0.47610229,-0.59903339,0.64380556,0.50239004,23.988803
2019-06-24/21:16:05,-0.49137481,-0.614629,0.61707536,0.16492367,23.896802
2019-06-27/20:53:32,-0.54015495,-0.51022504,0.66925559,0.17998335,23.746545
2019-06-28/08:38:34,-0.59333006,-0.45724509,0.66248499,0.7918752,23.688347
2019-06-29/09:53:34,-0.59148282,-0.36589272,0.71851972,0.24295951,23.660751
2019-06-30/21:46:03,-0.61006307,-0.15537176,0.77697018,0.62751719,23.637808
2019-07-02/20:15:56,-0.59575575,-0.29972271,0.74514521,0.23982486,23.543156
2019-07-03/20:23:33,-0.60249467,-0.25651702,0.75577721,0.23652117,23.557743
2019-07-09/21:31:05,-0.62240254,-0.050983394,0.78103506,0.32364913,23.336504
2019-07-10/06:38:34,-0.62624871,0.16758314,0.761399,0.3967411,23.339949
2019-07-11/08:46:04,-0.60928689,0.05930787,0.79072882,0.49189242,23.286828
2019-07-12/21:23:33,-0.59953913,0.24640388,0.76147092,0.19899834,23.278893
2019-07-14/06:23:35,-0.5890843,0.2808957,0.75767889,0.16048552,23.20007
2019-07-16/20:38:34,-0.56073531,0.36982073,0.74081613,0.14379399,23.056556
2019-07-18/20:01:03,-0.5280667,0.42348954,0.73607212,0.14695896,22.990676
2019-07-20/19:53:35,-0.50530795,0.47062349,0.72331004,0.1743056,22.910041
2019-07-21/06:23:33,-0.43215311,0.50337238,0.74823789,0.16277147,22.893312
2019-07-26/08:08:34,-0.33328562,0.58795791,0.7370388,0.1640254,22.674316
2019-07-27/10:53:36,-0.30327028,0.60797575,0.73375243,0.25280859,22.611022
2019-07-31/07:01:11,-0.20521883,0.65110806,0.7307144,0.2098434,22.474977
2019-08-03/07:38:33,-0.078534668,0.56417368,0.82191262,0.72391233,22.308048
2019-08-06/05:38:33,-0.052244446,0.65792459,0.75126942,0.15100973,22.204771
2019-08-07/06:08:09,-0.013549308,0.6428553,0.7658678,0.22540771,22.126199
2019-08-08/08:08:44,-0.0080115717,0.64578015,0.76348138,0.3252449,22.134987
2019-08-11/06:53:42,0.087510302,0.62668621,0.77434252,0.17153583,21.968323
2019-08-15/08:31:07,0.20863599,0.56470701,0.7984842,0.16233871,21.827193
2019-08-19/06:53:30,0.30441656,0.50044421,0.81048513,0.20118251,21.64205
2019-08-23/08:31:01,0.49499914,0.33451523,0.80191983,0.60237902,21.523295
2019-08-24/08:01:18,0.46907397,0.33619029,0.81666743,0.20280706,21.511336
2019-08-26/07:31:10,0.60660529,0.42351401,0.67280451,0.66246042,21.389793
2019-08-28/06:38:36,0.51815385,0.30479667,0.79913427,0.15729947,21.327609
2019-08-30/04:08:41,0.59043764,0.2173622,0.77726255,0.21678971,21.296911
2019-08-31/09:38:39,0.60480177,0.19724345,0.77156324,0.37194686,21.22071
2019-09-01/08:46:04,0.57097641,0.27218904,0.77453151,0.2385562,21.164152
2019-09-02/08:38:35,0.64162323,0.1428043,0.75360902,0.19712203,21.158972
2019-09-04/04:38:35,0.68582861,0.077815905,0.72359091,0.23518661,21.098446
2019-09-06/07:46:06,0.65791373,0.10684216,0.74547587,0.30412845,20.970517
2019-09-07/07:08:32,0.72425414,-0.0028021163,0.68952744,0.21876141,20.931059
2019-09-08/06:38:34,0.72549141,-0.0058906773,0.68820601,0.19961067,20.917868
2019-09-09/09:08:32,0.74436905,-0.06199204,0.66488473,0.19481063,20.854416
2019-09-10/07:46:03,0.77157343,-0.11721483,0.62524805,0.24504669,20.836648
2019-09-12/06:31:01,0.76105624,-0.16000299,0.62864334,0.23417042,20.708151
2019-09-14/09:08:33,0.77416091,-0.19120801,0.60341891,0.19443754,20.601421
2019-09-15/07:38:34,0.78465499,-0.25895127,0.56325907,0.26126276,20.603468
2019-09-18/06:38:34,0.7796663,-0.35760995,0.51403851,0.21796162,20.402924
2019-09-19/05:38:33,0.75669792,-0.37919192,0.5325615,0.20401654,20.364691
2019-09-22/04:38:38,0.73705717,-0.47455691,0.48118861,0.2170862,20.215837
2019-09-23/07:38:33,0.72096877,-0.51059113,0.46850905,0.47405128,20.178186
2019-09-24/00:31:05,0.70344741,-0.53214539,0.47115076,0.24555926,20.130818
2019-09-25/00:38:32,0.68802768,-0.59015191,0.4223016,0.22408956,20.05046
2019-09-26/00:31:05,0.68254845,-0.59569182,0.42341336,0.22574021,19.986497
2019-09-28/08:38:31,0.61842581,-0.64631032,0.44702627,0.21669288,19.856369
2019-09-29/08:08:34,0.58587254,-0.65966248,0.47074279,0.21091267,19.799039
2019-10-01/00:23:34,0.5534159,-0.6769946,0.48518981,0.29537957,19.708009
2019-10-03/05:53:34,0.48402484,-0.71541142,0.50389131,0.25046565,19.583725
2019-10-05/05:38:34,0.37242868,-0.74073097,0.55911941,0.19835877,19.472537
2019-10-11/03:38:36,0.16483656,-0.75746683,0.63172218,0.25463349,19.223744
2019-10-13/03:38:35,0.13501332,-0.74624917,0.65183095,0.44169851,19.117298
2019-10-14/07:38:31,0.12805059,-0.74316109,0.65674549,0.38887871,19.040075
2019-10-15/01:38:35,0.079856227,-0.71898909,0.69041848,0.39056722,18.986725
2019-10-16/05:38:32,0.030754732,-0.71123563,0.70228059,0.25819962,18.903853
2019-10-17/03:38:35,-0.017737932,-0.68100566,0.73206328,0.26568165,18.90471
2019-10-18/04:08:33,-0.033066863,-0.67277146,0.73911105,0.22291049,18.85476
2019-10-19/03:08:49,-0.067929302,-0.65177675,0.75536262,0.25077206,18.774675
2019-10-21/01:38:33,-0.14408389,-0.61097373,0.7784285,0.17010548,18.761889
2019-10-22/03:08:34,-0.15783187,-0.60338746,0.78167299,0.19228057,18.776946
2019-10-23/03:38:35,-0.20329039,-0.56656132,0.79854949,0.20502688,18.721292
2019-10-24/02:08:35,-0.2213751,-0.54950196,0.8056306,0.20955471,18.676732
2019-10-25/05:08:31,-0.25721795,-0.51366764,0.8185258,0.20612532,18.642366
2019-10-26/04:38:34,-0.28972836,-0.49273458,0.82053038,0.23486019,18.604064
2019-10-27/03:38:33,-0.31161068,-0.47023671,0.82569742,0.14537207,18.58249
2019-10-30/02:38:33,-0.39917655,-0.38180613,0.83359592,0.19355496,18.497262
2019-11-01/00:39:05,-0.43048496,-0.329816,0.84018099,0.16400348,18.432293
2019-11-02/00:38:32,-0.45867079,-0.30145693,0.83590958,0.24795072,18.385659
2019-11-04/02:53:34,-0.49598239,-0.21172523,0.84212463,0.21263996,18.346197
2019-11-05/01:46:04,-0.51761529,-0.20762278,0.83004047,0.21912566,18.292701
2019-11-07/01:01:06,-0.55038081,-0.14036354,0.8230304,0.20930174,18.217942
2019-11-09/01:01:05,-0.56794862,-0.089880474,0.81814171,0.20634746,18.145219
2019-11-11/00:38:32,-0.58189294,-0.031792098,0.81264376,0.23459015,18.109411
2019-11-12/00:23:34,-0.5836414,-0.0012533049,0.81201055,0.28974932,18.074498
2019-11-13/00:31:04,-0.60559131,0.054256391,0.79392406,0.27803664,18.007107
2019-11-14/00:38:33,-0.61620891,0.071204734,0.78435736,0.36363822,17.986079
2019-11-15/02:38:36,-0.647816,0.12435384,0.75157871,0.3741405,17.952903
2019-11-17/04:38:45,-0.69230192,0.2222668,0.68652423,0.99426015,21.95858
2019-11-24/11:38:33,-0.58975732,0.34620946,0.72960627,0.20745636,21.510321
2019-11-27/12:38:34,-0.53733682,0.40117028,0.74184335,0.24139772,21.386692
2019-11-29/10:38:30,-0.50917069,0.44269477,0.73808303,0.30874334,21.256271
2019-12-01/12:01:04,-0.4826764,0.47941595,0.73292826,0.38783614,21.162533
2019-12-03/10:38:34,-0.36985621,0.5133738,0.77437312,0.26069828,21.105697
2019-12-04/10:38:33,-0.37405954,0.52680398,0.76325423,0.29050938,21.019556
2019-12-06/10:19:59,-0.29420528,0.56128268,0.77356642,0.33227735,20.941858
2019-12-08/00:46:05,-0.27703731,0.56818199,0.77486745,0.24315751,20.87939
2019-12-14/09:46:06,-0.039152134,0.61697859,0.78600543,0.2013104,20.632467
2019-12-17/11:31:06,0.095661011,0.60197896,0.79276119,0.26932793,21.640489
2019-12-18/13:46:04,0.026373068,0.60723412,0.79408512,0.24381749,22.685261
2019-12-27/11:16:33,0.39720911,0.55998175,0.72708002,0.13056522,22.376894
2019-12-30/10:53:29,0.49815833,0.52888606,0.6871083,0.17757464,22.258981
2020-01-07/08:27:30,0.69839062,0.42597782,0.57514645,0.18277515,21.848479
2020-01-09/04:12:58,0.73674818,0.38854427,0.55338546,0.16461227,21.750777
2020-01-09/16:43:00,0.80895064,0.22312571,0.54388765,0.22055777,21.718777
2020-01-16/08:34:59,0.88102515,0.011533724,0.47292881,0.22445061,21.34726
2020-01-16/16:34:45,0.88313596,-0.14423812,0.44639247,0.1497718,21.3268
2020-01-22/17:12:01,0.77906274,-0.31255857,0.54347805,0.17620746,20.990878
2020-01-23/07:08:18,0.76755775,-0.32994643,0.54953659,0.23108948,20.943015
2020-01-24/17:28:07,0.70674385,-0.37685669,0.59874215,0.18613655,20.883016
2020-02-17/15:12:02,-0.111903786729596,-0.573674005375241,0.811403523576466,0.284013761364644,21.3225619967998
2020-02-29/09:14:31,-0.446310508070888,-0.458336197978609,0.768592779050141,0.186728010169732,22.3384305252967
2020-03-01/06:23:01,-0.46890507,-0.46329697,0.75198667,0.18898493,23.851884
2020-03-03/04:26:59,-0.52135055,-0.41765547,0.74414885,0.23500621,23.704407
2020-03-06/02:11:31,-0.555583759286666,-0.378592914190178,0.740266230313044,0.167558979311432,22.6305882535253
2020-03-10/05:12:01,-0.592593216273568,-0.277456662441264,0.756208357857477,0.175320590964402,21.8413225031683
2020-03-11/08:40:30,-0.633916662448451,-0.24154110947771,0.734715970632525,0.156959554392044,21.5155011250169
2020-03-21/06:11:31,-0.618213355135506,0.0498794035330433,0.784426091250978,0.211217525190624,21.0241417406609
2020-03-23/06:11:31,-0.614490804079816,0.0980183487327664,0.782811251204939,0.181261859579808,20.94546651777
2020-03-29/06:08:08,-0.4911531096348694,0.2737656455761933,0.826934697662547,0.17214248770331572,20.696512683611427
2020-03-31/06:07:45,-0.491147953948448,0.326128034676087,0.807721605709892,0.21431493227607,20.8970239567197
2020-04-02/06:12:01,-0.420172121060099,0.381761386629763,0.823233643847467,0.128577278975543,21.5784622277185
2020-04-04/06:11:02,-0.381022688427294,0.426221741017047,0.820461296093871,0.227668374829397,21.4827936756529
2020-04-06/06:12:00,-0.317954005351761,0.473304123867262,0.821515950430067,0.145672527593527,21.4237651731079
2020-04-07/06:12:00,-0.307976737086198,0.500804006566881,0.808916359347676,0.140776543823577,21.4053714129761
2020-04-11/06:11:30,-0.199245376750595,0.59168953003953,0.781156053477865,0.154001688495694,21.2637096817273
2020-04-15/06:12:01,-0.0900006567403715,0.674252990420176,0.732995761717455,0.324563987416613,21.1043111536339
2020-04-18/06:11:23,0.0106373514171743,0.72172029602994,0.692103071119673,0.368948964369995,21.0031335759195
2020-04-21/06:11:59,0.106018749668583,0.755855150283034,0.646098302512337,0.26888530158599,20.8722204268538
2020-04-25/06:11:53,0.222311688903222,0.78568715170269,0.577298200782153,0.210651231628425,20.7079758785214
2020-04-28/06:11:01,0.313871954338617,0.780138544669452,0.541173029077288,0.223580266754149,21.5696701072496
2020-05-04/06:12:00,0.496928621977849,0.723291377056597,0.479490905580876,0.17471594095018,21.3131180188198
2020-05-09/06:12:00,0.615386967025431,0.626986995284654,0.477688380180178,0.158461118626182,21.0920304333171
2020-05-11/06:12:01,0.64964604939601,0.572129778443222,0.50062713382583,0.221616263534499,20.9978691828586
2020-05-11/06:56:28,0.655435513530475,0.573801153114729,0.491076902620404,0.214725678947594,20.9936587572849
2020-05-12/06:12:01,0.66829010347363,0.553086070649897,0.497477774430438,0.186489309367232,20.9575532504002
2020-05-16/06:12:01,0.719744145278994,0.427946979513808,0.546653224687845,0.218758728813464,20.7803585288972
2020-05-18/06:11:31,0.752059082463444,0.379290685632409,0.539022923702453,0.169135987776568,21.5632685581824
2020-05-23/07:13:01,0.745037726720616,0.231612418738011,0.625519362809262,0.131107980061068,21.3784616930659
2020-05-29/06:12:01,0.703869511590938,0.0119212344593099,0.710229255115347,0.218181701724387,21.2131042663423
2020-05-31/06:11:30,0.672894740009318,-0.0337232685266552,0.738969153637465,0.130516506863314,21.1156737300954
2020-06-03/05:10:12,0.617260407528577,-0.130210520277386,0.775909021539734,0.121325209089401,21.0643156199439
2020-06-05/06:12:00,0.597447289884254,-0.181770511451958,0.781035349377001,0.209516992206102,21.3685317353922
2020-06-09/06:12:00,0.48470825,-0.30204912,0.82086798,0.12774554,21.28144
2020-06-13/06:24:08,0.454320678077864,-0.360298148916927,0.814725699458355,0.217991724562577,21.1917345278779
2020-06-17/07:02:05,0.30049383276659,-0.49489584211814,0.815341377536686,0.208107160423922,21.0416853699024
2020-06-19/07:21:04,0.261411528466942,-0.525246484578187,0.809802533475188,0.215941344151557,20.9767537975534
2020-06-21/07:40:02,0.198082005769637,-0.557482791496039,0.806211173437867,0.212565784948598,21.5627975655559
2020-06-25/06:44:15,0.0885846463343503,-0.613043458793448,0.785067180605828,0.216957804080125,21.3906887928384
2020-06-27/07:03:14,0.0405707237725055,-0.621836984149085,0.782095123061732,0.21846513049772,21.3012838275136
2020-06-29/06:16:09,-0.0152618441451353,-0.618227993416799,0.785850637379093,0.168812427983565,21.1832228781054
2020-07-01/06:12:01,-0.0885659879000913,-0.644935843383612,0.759087494104829,0.269601872627087,21.1146004547398
2020-07-03/06:26:26,-0.114991112099939,-0.627346202134519,0.770203730713773,0.20541020622303,21.0214688296691
2020-07-05/06:45:24,-0.180908787953445,-0.610377712562825,0.7711751152934,0.201317367487496,20.9276051049234
2020-07-09/07:23:20,-0.267720260513233,-0.569164082228481,0.777417590238179,0.196367939929763,21.4469890559422
2020-07-11/06:11:30,-0.305024527238903,-0.561835226816966,0.768961127554711,0.196622996996021,21.344027527453
2020-07-13/06:28:01,-0.346440277482008,-0.506183151213884,0.789783357361607,0.179020160835688,21.2450345374718
2020-07-15/06:46:29,-0.392835831877695,-0.459043537241792,0.796843171589933,0.171981559289799,21.1411415740996
2020-07-17/06:07:31,-0.453817001141444,-0.431548004253226,0.779625839425582,0.529561586303776,21.0149696646164
2020-07-19/06:22:16,-0.471046512964585,-0.375673030340967,0.798113373461653,0.369664151107815,20.9284434508517
2020-07-21/06:12:01,-0.475290748710934,-0.318337068604317,0.82021961384876,0.15798697681149,21.5004583821806
2020-07-23/06:28:30,-0.503796586525826,-0.254820814060682,0.825381943179264,0.160394462300673,21.4159838476249
2020-07-25/06:47:25,-0.526641407232794,-0.205860863397007,0.824784901116225,0.15984131591624,21.3380373747734
2020-07-27/07:06:20,-0.54841279780167,-0.19326605360941,0.813567228770671,0.154397592445335,21.2312315236083
2020-08-01/07:39:16,-0.580026705299927,0.0357931510761063,0.813810709855157,0.170873383187546,21.4158430788707
2020-08-05/06:11:30,-0.569395366434226,0.179120138363112,0.802312216481847,0.165769569905311,21.2992543783964
2020-08-09/06:48:28,-0.56231973,0.32051454,0.76227747,0.18116964,21.176331
2020-08-11/07:07:10,-0.548068845795993,0.397094491812245,0.736163368309116,0.188338233827208,21.5048055615587
2020-08-13/07:25:45,-0.57258635521649,0.461408120350478,0.677677956181647,0.49580082,21.4459804144294
2020-08-15/06:12:01,-0.50675781310796,0.51701801843636,0.689847002940636,0.20081522,21.3719556747643
2020-08-17/06:29:26,-0.482546316486844,0.584418332884785,0.652383525721755,0.21240692,21.2976644538051
2020-08-21/06:12:01,-0.41299824,0.7005701,0.58192267,0.1817779,21.562276
2020-08-23/06:25:46,-0.37009097,0.7457527,0.55397255,0.18789209,21.483282
2020-08-25/06:12:01,-0.32084925,0.77517974,0.54419861,0.23005675,21.427516
2020-08-27/06:28:41,-0.27077169,0.81080225,0.51892427,0.23354454,21.332655
2020-08-29/06:11:59,-0.215110780726395,0.831117343303224,0.512807287073684,0.18237262,21.1914063582366
2020-08-31/06:11:59,-0.165903057717344,0.851964650163806,0.496620992620429,0.192212809707034,21.0963995166282
2020-09-02/06:25:07,-0.113060374620389,0.870358973376678,0.479262568070355,0.186202003825886,21.0077602847099
2020-09-06/07:01:59,0.0115725399164443,0.873070896274774,0.487455932775307,0.23067492,22.18059037836
2020-09-08/06:12:00,0.0657173473532396,0.863096474318323,0.500745151026082,0.189199580739202,22.071086275698
2020-09-10/06:12:01,0.122805294018982,0.851199758861134,0.510272309924474,0.3827286671603,21.6942863576207
2020-09-11/07:01:08,0.123624520812507,0.857787117582902,0.498917066016683,0.453897465384904,21.6579943316683
2020-09-13/06:12:00,0.202966860535344,0.794728051005682,0.572024281363245,0.318454433250459,21.5558883220416
2020-09-15/06:12:03,0.226127779459979,0.788914657245603,0.571384188562785,0.43694738283163,21.473498548223
2020-09-16/07:00:03,0.254224633357386,0.766184550014408,0.590195790491191,0.421792868857696,21.4448386904552
2020-09-18/06:12:01,0.319395130313653,0.694105333793231,0.645139160438825,0.169717675363414,21.3508298051829
2020-09-20/06:14:55,0.361822990185717,0.630069007142188,0.687093276063683,0.355558582250109,21.2676388352222
2020-09-22/07:15:23,0.403865747245234,0.579842012943206,0.707584410673398,0.152198893820751,21.2381356408614
2020-09-26/06:57:33,0.460475865345851,0.465099625645238,0.756071633946579,0.164958955549525,21.2330624028633
2020-09-30/06:12:00,0.503670417141671,0.327053178238411,0.799595103474558,0.149631033771839,21.0756146496966
2020-10-01/10:12:00,0.506075170023825,0.299741257307386,0.808729312534883,0.27568964293345,21.1895957818175
2020-10-02/07:15:55,0.533051028350305,0.254216535404797,0.806988571357404,0.128057582781145,21.2422359275392
2020-10-03/06:12:01,0.527348305383706,0.227141517294328,0.818724920794624,0.129995809058185,21.1355736738869
2020-10-04/06:35:45,0.537019892915296,0.200542256129563,0.819385402676731,0.15145703564471,21.1047839514058
2020-10-05/06:12:02,0.547863940762645,0.149824302393767,0.82304178558822,0.201803653506269,21.0998996523486
2020-10-06/04:12:00,0.556603833986649,0.111150942493574,0.823308957788116,0.183280997185581,21.080336637929
2020-10-07/04:12:03,0.568116227806392,0.0893543349815798,0.81808297532893,0.216878051662159,21.2449656100628
2020-10-08/04:11:33,0.558168960324161,0.0575118407657305,0.827731719763343,0.12697272845032,21.2200985639572
2020-10-09/04:24:33,0.574573202095338,0.025649174835295,0.81805119354731,0.137828273229177,21.2306255541907
2020-10-10/06:12:01,0.567952557181962,-0.0203923691964281,0.82280863149886,0.195837352654643,21.1477632048974
2020-10-11/06:51:17,0.562529448698483,-0.0501285646151653,0.825256170141493,0.113469820029459,21.1165764382161
2020-10-12/04:12:01,0.570710412346912,-0.0766090509932598,0.817569983881949,0.211057505857297,21.1273453023583
2020-10-14/06:31:06,0.5583900586932,-0.150834839620635,0.815750815818913,0.113424570400445,21.1295458338263
2020-10-17/06:12:00,0.53841667155379,-0.242661155818708,0.806983922547201,0.122782058195343,21.012434388725
2020-10-18/06:30:40,0.541411039158416,-0.272647771877868,0.795322122895772,0.151391517108948,21.227864518491
2020-10-19/04:19:11,0.536338859821631,-0.29569205643559,0.790510490256849,0.179083595785264,21.1902344083093
2020-10-20/06:12:04,0.518469558844475,-0.341770636880084,0.783825330235121,0.298065500737588,21.1044851304804
2020-10-21/06:12:03,0.511143932766603,-0.361115541748805,0.779953489320586,0.19878042204979,21.1141444659452
2020-10-22/06:11:57,0.479169167708209,-0.379455536360709,0.79146093058535,0.171175361581272,21.0149796189577
2020-10-23/06:24:46,0.487081449719453,-0.409613921597871,0.7713417508293,0.222093081351102,21.2995411506027
2020-10-24/04:16:22,0.478967589119487,-0.429792409989675,0.765420494165353,0.163991477170573,21.2665043411307
2020-10-25/06:12:01,0.456279190973126,-0.468549051296516,0.75648601204123,0.227710896468223,21.1805329569276
2020-10-26/06:12:00,0.438644936662169,-0.488361575713666,0.754382920609359,0.202324001091591,21.177425791862
2020-10-27/06:12:01,0.405611785197916,-0.497224516601775,0.766972528711877,0.182214756236765,21.0872082610533
2020-10-28/04:12:01,0.399420284601478,-0.511196740072124,0.76101335677405,0.239088349622982,21.0479489544448
2020-10-29/06:22:14,0.361562766691008,-0.536447469004972,0.762559164092141,0.191513009827471,20.9980303018342
2020-10-30/06:12:00,0.354029686812847,-0.563386032010326,0.746497930198642,0.207935054092835,20.9507618000434
2020-10-31/06:12:01,0.3511308159596,-0.552560965102279,0.755899153279578,0.226350376296324,21.1794037428019
2020-11-01/06:12:01,0.304517345294146,-0.581262260684673,0.754588212682089,0.290532574908734,21.0875171522258
2020-11-02/06:55:18,0.278360102298221,-0.579304188241937,0.766108550359461,0.530946027008552,21.0448333809947
2020-11-03/06:18:39,0.272791643628955,-0.595381065997951,0.755715624701089,0.365164109128564,20.9962116498864
2020-11-07/04:11:58,0.152463214319266,-0.624337186249083,0.766131872555903,0.299890613701837,21.0552377542333
2020-11-08/04:12:01,0.147651125229726,-0.617759259157209,0.772381151339112,0.229464807373634,21.0484295973399
2020-11-09/05:01:02,0.107521979663816,-0.623479800963888,0.774410718985219,0.17572012326909,20.9937027607433
2020-11-10/04:12:43,0.0538650471572635,-0.638055692783466,0.768103827357576,0.262774932955792,21.1949552600388
2020-11-11/05:18:04,0.0461023188370232,-0.625104536747671,0.779178345653502,0.166743679138344,21.1686632484032
2020-11-12/04:09:20,0.014606395318076,-0.623157704568987,0.781959799767305,0.219035762496126,21.1011338915894
2020-11-13/04:12:00,-0.0194987420381888,-0.621005611766669,0.783563545102268,0.194927975683672,21.094154319859
2020-11-14/04:56:51,-0.0415794901560295,-0.605281480185094,0.79492482395715,0.164902155471318,21.0425368149848
2020-11-15/04:18:34,-0.0685910725966399,-0.602647082557724,0.795054563312926,0.161117277711658,21.1489841192764
2020-11-19/11:06:09,-0.214297631993476,-0.549358389269864,0.807639700027685,0.182160976211931,20.9873822567929
2020-11-21/11:22:58,-0.271192089056357,-0.515070475446066,0.813115770451547,0.179366841424902,21.2971667876403
2020-11-23/11:39:44,-0.334927945819423,-0.476526690896287,0.812862586156244,0.175413352718656,21.2295214976142
2020-11-25/10:22:59,-0.394422618559541,-0.43800611455278,0.807825130571593,0.1755962475092,21.1644419105242
2020-11-26/11:18:03,-0.426433852545628,-0.412601854354827,0.804930977901865,0.175161009291923,21.1337636459369
2020-11-29/10:12:01,-0.499536394957644,-0.376576292306637,0.780162602401132,0.223353101223513,21.1188810426312
2020-11-30/10:17:41,-0.508682079294927,-0.360946391898854,0.781639459328525,0.174348527458592,21.1323526840577
2020-12-01/11:12:39,-0.579600885725256,-0.284238719006236,0.763721915283431,0.173900321400921,21.1005841871759
2020-12-02/09:00:37,-0.59656833,-0.26442263,0.75775121,0.18421519,21.071379
2020-12-03/11:28:55,-0.63000362,-0.22604329,0.74296694,0.1741814,21.23719
2020-12-04/10:12:01,-0.64505389,-0.21716877,0.7326276,0.26277819,21.166649
2020-12-05/10:12:00,-0.67415273,-0.17673736,0.71713458,0.17694255,21.18049
2020-12-06/10:12:00,-0.70207169,-0.16101845,0.69366303,0.32022531,21.121754
2020-12-09/10:12:46,-0.75077956,-0.064573052,0.65738906,0.39480112,21.211611
2020-12-10/10:12:01,-0.76719993,-0.026497644,0.64086047,0.19809801,21.229883
2020-12-11/10:12:01,-0.78975199,-0.010609078,0.61333453,0.46271515,21.380018
2020-12-12/10:21:18,-0.80144379,0.047977575,0.5961426,0.17847597,21.373497
2020-12-13/11:16:04,-0.8124493,0.085990574,0.57665567,0.18119751,21.332683
2020-12-14/10:12:00,-0.82893646,0.11745363,0.54687201,0.16167121,21.246658
2020-12-16/10:12:00,-0.81505503,0.13219824,0.5641001,0.29042567,21.40848
2020-12-17/10:14:36,-0.8360605,0.21277705,0.50569632,0.18369457,21.402364
2020-12-20/11:33:31,-0.8357094,0.29603807,0.46254866,0.20403845,21.516213
2020-12-22/10:12:50,-0.82638182,0.36980012,0.42466571,0.2044502,21.409808